カタログに戻る

THOR ABLESTAR DEB

運用中LEO
NORAD 126·DEBRIS·🇺🇸 United States

打ち上げ Jun 29, 1961 から Cape Canaveral Space Force Station

Loading…

次のパス (今後24時間)

TLE

最新Source: Space-Track

元期: Sep 14, 2026, 07:06 UTC

1 00126U 61015L   26257.29608843  .00000851  00000-0  26369-3 0  9997
2 00126  66.7073 215.0642 0061237 196.1397 163.7761 14.45045596377477

AllMySatでTHOR ABLESTAR DEBをリアルタイム追跡

Download on the App Store